Time,TemperatureF,DewpointF,PressureIn,WindDirection,WindDirectionDegrees,WindSpeedMPH,WindSpeedGustMPH,Humidity,HourlyPrecipIn,Conditions,Clouds,dailyrainin,SoftwareType,DateUTC
2013-03-30 00:02:00,43.8,36.4,30.18,WSW,250,5.0,7.0,75,0.00,,SKC,0.00,VWS V12.07,2013-03-30 07:02:00,
2013-03-30 00:12:00,43.2,36.2,30.19,West,262,7.0,8.0,76,0.00,,SKC,0.00,VWS V12.07,2013-03-30 07:12:00,
2013-03-30 00:22:00,42.3,35.3,30.18,West,264,7.0,8.0,76,0.00,,SKC,0.00,VWS V12.07,2013-03-30 07:22:00,
2013-03-30 00:32:00,41.7,34.7,30.19,West,264,5.0,8.0,76,0.00,,SKC,0.00,VWS V12.07,2013-03-30 07:32:00,
2013-03-30 00:42:00,41.8,35.1,30.19,West,264,5.0,8.0,77,0.00,,SKC,0.00,VWS V12.07,2013-03-30 07:42:00,
2013-03-30 00:52:00,42.1,35.8,30.19,West,264,6.0,8.0,78,0.00,,SKC,0.00,VWS V12.07,2013-03-30 07:52:00,
2013-03-30 01:12:00,42.3,35.3,30.19,West,264,5.0,7.0,76,0.00,,SKC,0.00,VWS V12.07,2013-03-30 08:12:00,
2013-03-30 01:22:00,42.1,35.4,30.19,West,264,4.0,7.0,77,0.00,,SKC,0.00,VWS V12.07,2013-03-30 08:22:00,
2013-03-30 01:32:00,41.6,34.6,30.19,West,264,3.0,5.0,76,0.00,,SKC,0.00,VWS V12.07,2013-03-30 08:32:00,
2013-03-30 01:42:00,41.2,34.9,30.20,West,264,4.0,5.0,78,0.00,,SKC,0.00,VWS V12.07,2013-03-30 08:42:00,
2013-03-30 01:52:00,41.5,35.2,30.19,West,264,4.0,7.0,78,0.00,,SKC,0.00,VWS V12.07,2013-03-30 08:52:00,
2013-03-30 02:02:00,40.7,34.1,30.18,West,264,4.0,5.0,77,0.00,,SKC,0.00,VWS V12.07,2013-03-30 09:02:00,
2013-03-30 02:12:00,39.2,33.2,30.20,West,264,2.0,5.0,79,0.00,,SKC,0.00,VWS V12.07,2013-03-30 09:12:00,
2013-03-30 02:22:00,38.7,32.8,30.20,SW,228,7.0,10.0,79,0.00,,SKC,0.00,VWS V12.07,2013-03-30 09:22:00,
2013-03-30 02:32:00,37.1,31.5,30.19,SW,215,9.0,9.0,80,0.00,,SKC,0.00,VWS V12.07,2013-03-30 09:32:00,
2013-03-30 02:42:00,36.5,31.5,30.20,SSW,213,9.0,10.0,82,0.00,,SKC,0.00,VWS V12.07,2013-03-30 09:42:00,
2013-03-30 02:52:00,37.7,33.0,30.18,SSW,213,6.0,10.0,83,0.00,,SKC,0.00,VWS V12.07,2013-03-30 09:52:00,
2013-03-30 03:02:00,38.4,33.4,30.18,SSW,213,12.0,12.0,82,0.00,,SKC,0.00,VWS V12.07,2013-03-30 10:02:00,
2013-03-30 03:12:00,38.8,34.1,30.19,SW,214,4.0,12.0,83,0.00,,SKC,0.00,VWS V12.07,2013-03-30 10:12:00,
2013-03-30 03:22:00,39.1,34.1,30.19,SSW,213,8.0,12.0,82,0.00,,SKC,0.00,VWS V12.07,2013-03-30 10:22:00,
2013-03-30 03:32:00,38.7,33.7,30.18,SSW,212,3.0,6.0,82,0.00,,SKC,0.00,VWS V12.07,2013-03-30 10:32:00,
2013-03-30 03:42:00,38.8,33.8,30.19,SSW,212,5.0,6.0,82,0.00,,SKC,0.00,VWS V12.07,2013-03-30 10:42:00,
2013-03-30 03:52:00,39.0,34.0,30.19,SSW,212,7.0,7.0,82,0.00,,SKC,0.00,VWS V12.07,2013-03-30 10:52:00,
2013-03-30 04:02:00,39.7,34.7,30.18,SSW,212,3.0,4.0,82,0.00,,SKC,0.00,VWS V12.07,2013-03-30 11:02:00,
2013-03-30 04:12:00,39.0,34.0,30.18,SSW,212,2.0,7.0,82,0.00,,SKC,0.00,VWS V12.07,2013-03-30 11:12:00,
2013-03-30 04:22:00,38.6,33.6,30.20,SW,214,5.0,7.0,82,0.00,,SKC,0.00,VWS V12.07,2013-03-30 11:22:00,
2013-03-30 04:32:00,37.4,31.8,30.18,SSW,213,9.0,10.0,80,0.00,,SKC,0.00,VWS V12.07,2013-03-30 11:32:00,
2013-03-30 04:42:00,37.4,33.0,30.18,SW,214,6.0,10.0,84,0.00,,SKC,0.00,VWS V12.07,2013-03-30 11:42:00,
2013-03-30 04:52:00,37.1,32.4,30.19,SW,214,5.0,10.0,83,0.00,,SKC,0.00,VWS V12.07,2013-03-30 11:52:00,
2013-03-30 05:02:00,36.1,31.1,30.18,SW,214,7.0,9.0,82,0.00,,SKC,0.00,VWS V12.07,2013-03-30 12:02:00,
2013-03-30 05:12:00,36.1,31.5,30.18,SW,222,9.0,9.0,83,0.00,,SKC,0.00,VWS V12.07,2013-03-30 12:12:00,
2013-03-30 05:22:00,35.9,31.2,30.18,SW,222,6.0,11.0,83,0.00,,SKC,0.00,VWS V12.07,2013-03-30 12:22:00,
2013-03-30 05:32:00,36.0,31.6,30.18,SW,222,7.0,12.0,84,0.00,,SKC,0.00,VWS V12.07,2013-03-30 12:32:00,
2013-03-30 05:42:00,35.6,31.2,30.18,SW,220,7.0,12.0,84,0.00,,SKC,0.00,VWS V12.07,2013-03-30 12:42:00,
2013-03-30 05:52:00,35.5,31.1,30.19,SW,227,7.0,12.0,84,0.00,,SKC,0.00,VWS V12.07,2013-03-30 12:52:00,
2013-03-30 06:02:00,35.5,31.5,30.18,SW,219,6.0,13.0,85,0.00,,SKC,0.00,VWS V12.07,2013-03-30 13:02:00,
2013-03-30 06:12:00,35.5,31.1,30.18,SSW,204,9.0,13.0,84,0.00,,SKC,0.00,VWS V12.07,2013-03-30 13:12:00,
2013-03-30 06:22:00,35.3,31.2,30.18,SSW,212,7.0,13.0,85,0.00,,SKC,0.00,VWS V12.07,2013-03-30 13:22:00,
2013-03-30 06:32:00,35.1,31.0,30.18,SW,217,4.0,8.0,85,0.00,,SKC,0.00,VWS V12.07,2013-03-30 13:32:00,
2013-03-30 06:42:00,35.1,31.0,30.18,SW,221,1.0,9.0,85,0.00,,SKC,0.00,VWS V12.07,2013-03-30 13:42:00,
2013-03-30 06:52:00,35.4,31.4,30.19,SW,221,4.0,9.0,85,0.00,,SKC,0.00,VWS V12.07,2013-03-30 13:52:00,
2013-03-30 07:12:00,35.4,31.4,30.20,SW,226,9.0,12.0,85,0.00,,SKC,0.00,VWS V12.07,2013-03-30 14:12:00,
2013-03-30 07:22:00,35.7,31.6,30.18,SW,229,10.0,12.0,85,0.00,,SKC,0.00,VWS V12.07,2013-03-30 14:22:00,
2013-03-30 07:32:00,35.8,31.7,30.19,SW,222,0.0,9.0,85,0.00,,SKC,0.00,VWS V12.07,2013-03-30 14:32:00,
2013-03-30 07:42:00,36.3,32.2,30.19,SW,226,5.0,10.0,85,0.00,,SKC,0.00,VWS V12.07,2013-03-30 14:42:00,
2013-03-30 07:52:00,36.7,32.3,30.18,SW,221,0.0,10.0,84,0.00,,SKC,0.00,VWS V12.07,2013-03-30 14:52:00,
2013-03-30 08:02:00,37.1,32.7,30.18,SSW,208,0.0,14.0,84,0.00,,SKC,0.00,VWS V12.07,2013-03-30 15:02:00,
2013-03-30 08:12:00,37.5,32.8,30.18,SW,214,0.0,14.0,83,0.00,,SKC,0.00,VWS V12.07,2013-03-30 15:12:00,
2013-03-30 08:22:00,38.4,33.7,30.18,SSW,210,8.0,14.0,83,0.00,,SKC,0.00,VWS V12.07,2013-03-30 15:22:00,
2013-03-30 08:32:00,39.1,34.1,30.18,SSW,211,9.0,12.0,82,0.00,,SKC,0.00,VWS V12.07,2013-03-30 15:32:00,
2013-03-30 08:42:00,40.0,34.3,30.18,SSW,213,8.0,14.0,80,0.00,,SKC,0.00,VWS V12.07,2013-03-30 15:42:00,
2013-03-30 08:52:00,40.8,34.8,30.18,SW,216,6.0,16.0,79,0.00,,SKC,0.00,VWS V12.07,2013-03-30 15:52:00,
2013-03-30 09:02:00,41.8,35.5,30.18,SW,214,8.0,13.0,78,0.00,,SKC,0.00,VWS V12.07,2013-03-30 16:02:00,
2013-03-30 09:12:00,43.1,36.4,30.18,SSW,208,6.0,13.0,77,0.00,,SKC,0.00,VWS V12.07,2013-03-30 16:12:00,
2013-03-30 09:22:00,44.4,37.3,30.18,SSW,210,6.0,13.0,76,0.00,,SKC,0.00,VWS V12.07,2013-03-30 16:22:00,
2013-03-30 09:32:00,46.2,38.4,30.19,SSW,206,6.0,8.0,74,0.00,,SKC,0.00,VWS V12.07,2013-03-30 16:32:00,
2013-03-30 09:42:00,47.5,38.6,30.17,SSW,193,10.0,11.0,71,0.00,,SKC,0.00,VWS V12.07,2013-03-30 16:42:00,
2013-03-30 09:52:00,47.8,38.9,30.18,SSW,200,7.0,11.0,71,0.00,,SKC,0.00,VWS V12.07,2013-03-30 16:52:00,
2013-03-30 10:02:00,48.5,39.2,30.18,South,190,3.0,7.0,70,0.00,,SKC,0.00,VWS V12.07,2013-03-30 17:02:00,
2013-03-30 10:12:00,49.1,39.4,30.18,SSW,197,3.0,9.0,69,0.00,,SKC,0.00,VWS V12.07,2013-03-30 17:12:00,
2013-03-30 10:22:00,50.9,40.7,30.17,SSW,197,2.0,9.0,68,0.00,,SKC,0.00,VWS V12.07,2013-03-30 17:22:00,
2013-03-30 10:32:00,51.9,40.9,30.19,SSW,197,2.0,6.0,66,0.00,,SKC,0.00,VWS V12.07,2013-03-30 17:32:00,
2013-03-30 10:42:00,52.6,41.2,30.19,SSW,197,3.0,6.0,65,0.00,,SKC,0.00,VWS V12.07,2013-03-30 17:42:00,
2013-03-30 10:52:00,53.7,41.8,30.18,South,191,0.0,7.0,64,0.00,,SKC,0.00,VWS V12.07,2013-03-30 17:52:00,
2013-03-30 11:02:00,54.2,41.5,30.19,South,191,3.0,4.0,62,0.00,,SKC,0.00,VWS V12.07,2013-03-30 18:02:00,
2013-03-30 11:12:00,54.3,41.2,30.17,SSW,193,3.0,7.0,61,0.00,,SKC,0.00,VWS V12.07,2013-03-30 18:12:00,
2013-03-30 11:22:00,54.5,41.3,30.17,SW,235,5.0,7.0,61,0.00,,SKC,0.00,VWS V12.07,2013-03-30 18:22:00,
2013-03-30 11:32:00,55.4,41.3,30.18,SW,233,0.0,7.0,59,0.00,,SKC,0.00,VWS V12.07,2013-03-30 18:32:00,
2013-03-30 11:42:00,55.8,41.3,30.17,SW,234,2.0,7.0,58,0.00,,SKC,0.00,VWS V12.07,2013-03-30 18:42:00,
2013-03-30 11:52:00,57.2,42.1,30.17,SW,228,2.0,7.0,57,0.00,,SKC,0.00,VWS V12.07,2013-03-30 18:52:00,
2013-03-30 12:02:00,58.0,42.4,30.16,NE,41,5.0,11.0,56,0.00,,SKC,0.00,VWS V12.07,2013-03-30 19:02:00,
2013-03-30 12:22:00,58.8,42.7,30.16,ENE,74,2.0,11.0,55,0.00,,SKC,0.00,VWS V12.07,2013-03-30 19:22:00,
2013-03-30 12:32:00,58.8,42.2,30.16,East,90,4.0,10.0,54,0.00,,SKC,0.00,VWS V12.07,2013-03-30 19:32:00,
2013-03-30 12:42:00,59.0,41.4,30.16,ENE,76,3.0,10.0,52,0.00,,SKC,0.00,VWS V12.07,2013-03-30 19:42:00,
2013-03-30 12:52:00,59.8,41.7,30.14,East,83,0.0,10.0,51,0.00,,SKC,0.00,VWS V12.07,2013-03-30 19:52:00,
2013-03-30 13:02:00,60.3,41.6,30.16,NNE,31,9.0,11.0,50,0.00,,SKC,0.00,VWS V12.07,2013-03-30 20:02:00,
2013-03-30 13:12:00,61.0,42.2,30.14,NE,35,5.0,11.0,50,0.00,,SKC,0.00,VWS V12.07,2013-03-30 20:12:00,
2013-03-30 13:22:00,61.1,41.8,30.15,ENE,61,3.0,13.0,49,0.00,,SKC,0.00,VWS V12.07,2013-03-30 20:22:00,
2013-03-30 13:32:00,61.6,41.7,30.15,NNE,13,0.0,4.0,48,0.00,,SKC,0.00,VWS V12.07,2013-03-30 20:32:00,
2013-03-30 13:42:00,62.1,40.5,30.14,ENE,69,3.0,8.0,45,0.00,,SKC,0.00,VWS V12.07,2013-03-30 20:42:00,
2013-03-30 13:52:00,62.0,41.6,30.14,North,10,5.0,10.0,47,0.00,,SKC,0.00,VWS V12.07,2013-03-30 20:52:00,
2013-03-30 14:02:00,62.8,41.7,30.12,NE,40,2.0,7.0,46,0.00,,SKC,0.00,VWS V12.07,2013-03-30 21:02:00,
2013-03-30 14:12:00,62.7,40.5,30.12,NNE,20,10.0,14.0,44,0.00,,SKC,0.00,VWS V12.07,2013-03-30 21:12:00,
2013-03-30 14:22:00,62.9,39.5,30.12,North,6,1.0,14.0,42,0.00,,SKC,0.00,VWS V12.07,2013-03-30 21:22:00,
2013-03-30 14:32:00,64.2,40.7,30.12,North,6,0.0,5.0,42,0.00,,SKC,0.00,VWS V12.07,2013-03-30 21:32:00,
2013-03-30 14:42:00,64.4,40.8,30.13,NNE,22,2.0,16.0,42,0.00,,SKC,0.00,VWS V12.07,2013-03-30 21:42:00,
2013-03-30 14:52:00,64.7,39.2,30.11,East,85,9.0,16.0,39,0.00,,SKC,0.00,VWS V12.07,2013-03-30 21:52:00,
2013-03-30 15:02:00,64.7,39.2,30.11,NE,54,0.0,7.0,39,0.00,,SKC,0.00,VWS V12.07,2013-03-30 22:02:00,
2013-03-30 15:12:00,65.0,38.1,30.11,North,0,0.0,14.0,37,0.00,,SKC,0.00,VWS V12.07,2013-03-30 22:12:00,
2013-03-30 15:22:00,65.5,37.9,30.11,NNE,30,6.0,14.0,36,0.00,,SKC,0.00,VWS V12.07,2013-03-30 22:22:00,
2013-03-30 15:32:00,65.6,38.0,30.10,NNE,32,9.0,13.0,36,0.00,,SKC,0.00,VWS V12.07,2013-03-30 22:32:00,
2013-03-30 15:42:00,65.6,36.5,30.09,NNW,344,6.0,14.0,34,0.00,,SKC,0.00,VWS V12.07,2013-03-30 22:42:00,
2013-03-30 15:52:00,65.5,37.2,30.09,NNE,14,6.0,14.0,35,0.00,,SKC,0.00,VWS V12.07,2013-03-30 22:52:00,
2013-03-30 16:02:00,65.6,38.0,30.09,NNE,33,0.0,10.0,36,0.00,,SKC,0.00,VWS V12.07,2013-03-30 23:02:00,
2013-03-30 16:12:00,65.9,38.2,30.09,NE,41,3.0,14.0,36,0.00,,SKC,0.00,VWS V12.07,2013-03-30 23:12:00,
2013-03-30 16:22:00,65.2,39.0,30.08,North,5,0.0,16.0,38,0.00,,SKC,0.00,VWS V12.07,2013-03-30 23:22:00,
2013-03-30 16:32:00,65.1,39.5,30.09,North,357,10.0,11.0,39,0.00,,SKC,0.00,VWS V12.07,2013-03-30 23:32:00,
2013-03-30 16:42:00,65.2,39.6,30.08,NNE,12,4.0,14.0,39,0.00,,SKC,0.00,VWS V12.07,2013-03-30 23:42:00,
2013-03-30 16:52:00,65.3,39.7,30.07,NNE,24,9.0,14.0,39,0.00,,SKC,0.00,VWS V12.07,2013-03-30 23:52:00,
2013-03-30 17:02:00,64.8,39.3,30.08,NNE,25,0.0,16.0,39,0.00,,SKC,0.00,VWS V12.07,2013-03-31 00:02:00,
2013-03-30 17:12:00,64.5,40.9,30.08,NNE,19,12.0,21.0,42,0.00,,SKC,0.00,VWS V12.07,2013-03-31 00:12:00,
2013-03-30 17:22:00,64.7,41.1,30.07,NNE,17,11.0,21.0,42,0.00,,SKC,0.00,VWS V12.07,2013-03-31 00:22:00,
2013-03-30 17:32:00,64.2,40.7,30.08,NNE,15,15.0,15.0,42,0.00,,SKC,0.00,VWS V12.07,2013-03-31 00:32:00,
2013-03-30 17:42:00,63.7,40.8,30.06,NNE,14,6.0,19.0,43,0.00,,SKC,0.00,VWS V12.07,2013-03-31 00:42:00,
2013-03-30 17:52:00,63.6,40.7,30.08,NNE,20,10.0,64.0,43,0.00,,SKC,0.00,VWS V12.07,2013-03-31 00:52:00,
2013-03-30 18:02:00,63.5,41.8,30.07,NNW,345,14.0,16.0,45,0.00,,SKC,0.00,VWS V12.07,2013-03-31 01:02:00,
2013-03-30 18:12:00,63.1,40.9,30.06,North,358,0.0,16.0,44,0.00,,SKC,0.00,VWS V12.07,2013-03-31 01:12:00,
2013-03-30 18:22:00,62.8,41.2,30.08,NNW,338,0.0,16.0,45,0.00,,SKC,0.00,VWS V12.07,2013-03-31 01:22:00,
2013-03-30 18:32:00,62.4,41.4,30.06,North,358,9.0,16.0,46,0.00,,SKC,0.00,VWS V12.07,2013-03-31 01:32:00,
2013-03-30 18:42:00,61.8,41.4,30.06,North,359,8.0,18.0,47,0.00,,SKC,0.00,VWS V12.07,2013-03-31 01:42:00,
2013-03-30 18:52:00,61.3,41.5,30.07,North,356,9.0,18.0,48,0.00,,SKC,0.00,VWS V12.07,2013-03-31 01:52:00,
2013-03-30 19:02:00,60.9,41.6,30.08,NNW,340,9.0,14.0,49,0.00,,SKC,0.00,VWS V12.07,2013-03-31 02:02:00,
2013-03-30 19:12:00,60.3,41.1,30.08,North,352,10.0,15.0,49,0.00,,SKC,0.00,VWS V12.07,2013-03-31 02:12:00,
2013-03-30 19:22:00,60.0,41.3,30.08,NNW,344,9.0,15.0,50,0.00,,SKC,0.00,VWS V12.07,2013-03-31 02:22:00,
2013-03-30 19:32:00,59.5,41.4,30.06,North,356,0.0,12.0,51,0.00,,SKC,0.00,VWS V12.07,2013-03-31 02:32:00,
2013-03-30 19:42:00,58.9,41.3,30.07,North,358,9.0,14.0,52,0.00,,SKC,0.00,VWS V12.07,2013-03-31 02:42:00,
2013-03-30 19:52:00,58.4,40.9,30.08,North,349,6.0,14.0,52,0.00,,SKC,0.00,VWS V12.07,2013-03-31 02:52:00,
2013-03-30 20:02:00,57.9,41.4,30.07,NNW,342,13.0,13.0,54,0.00,,SKC,0.00,VWS V12.07,2013-03-31 03:02:00,
2013-03-30 20:12:00,57.3,40.8,30.08,NNW,335,5.0,13.0,54,0.00,,SKC,0.00,VWS V12.07,2013-03-31 03:12:00,
2013-03-30 20:22:00,56.7,40.7,30.07,NNW,339,5.0,13.0,55,0.00,,SKC,0.00,VWS V12.07,2013-03-31 03:22:00,
2013-03-30 20:32:00,56.2,40.7,30.08,NNW,336,7.0,10.0,56,0.00,,SKC,0.00,VWS V12.07,2013-03-31 03:32:00,
2013-03-30 20:42:00,55.7,40.7,30.08,NNW,330,6.0,10.0,57,0.00,,SKC,0.00,VWS V12.07,2013-03-31 03:42:00,
2013-03-30 20:52:00,55.3,40.3,30.07,NNW,332,7.0,10.0,57,0.00,,SKC,0.00,VWS V12.07,2013-03-31 03:52:00,
2013-03-30 21:02:00,55.0,40.5,30.08,NNW,332,6.0,7.0,58,0.00,,SKC,0.00,VWS V12.07,2013-03-31 04:02:00,
2013-03-30 21:12:00,54.6,40.1,30.07,NNW,338,7.0,12.0,58,0.00,,SKC,0.00,VWS V12.07,2013-03-31 04:12:00,
2013-03-30 21:22:00,54.6,40.1,30.08,NNW,335,14.0,14.0,58,0.00,,SKC,0.00,VWS V12.07,2013-03-31 04:22:00,
2013-03-30 21:32:00,54.7,40.2,30.08,NNW,337,8.0,12.0,58,0.00,,SKC,0.00,VWS V12.07,2013-03-31 04:32:00,
2013-03-30 21:42:00,54.4,40.4,30.07,NNW,328,9.0,14.0,59,0.00,,SKC,0.00,VWS V12.07,2013-03-31 04:42:00,
2013-03-30 21:52:00,54.2,40.2,30.07,NNW,346,9.0,14.0,59,0.00,,SKC,0.00,VWS V12.07,2013-03-31 04:52:00,
2013-03-30 22:02:00,54.1,40.1,30.07,NNW,333,9.0,16.0,59,0.00,,SKC,0.00,VWS V12.07,2013-03-31 05:02:00,
2013-03-30 22:12:00,53.8,40.3,30.08,NNW,347,0.0,16.0,60,0.00,,SKC,0.00,VWS V12.07,2013-03-31 05:12:00,
2013-03-30 22:22:00,53.5,40.0,30.07,NNW,343,4.0,16.0,60,0.00,,SKC,0.00,VWS V12.07,2013-03-31 05:22:00,
2013-03-30 22:32:00,53.1,39.6,30.07,NNW,345,5.0,9.0,60,0.00,,SKC,0.00,VWS V12.07,2013-03-31 05:32:00,
2013-03-30 22:42:00,52.9,39.8,30.07,North,349,7.0,11.0,61,0.00,,SKC,0.00,VWS V12.07,2013-03-31 05:42:00,
2013-03-30 22:52:00,52.6,39.5,30.07,North,349,7.0,12.0,61,0.00,,SKC,0.00,VWS V12.07,2013-03-31 05:52:00,
2013-03-30 23:02:00,52.2,40.0,30.06,North,351,7.0,7.0,63,0.00,,SKC,0.00,VWS V12.07,2013-03-31 06:02:00,
2013-03-30 23:12:00,51.9,39.7,30.07,North,354,3.0,10.0,63,0.00,,SKC,0.00,VWS V12.07,2013-03-31 06:12:00,
2013-03-30 23:22:00,51.9,40.1,30.06,North,354,4.0,10.0,64,0.00,,SKC,0.00,VWS V12.07,2013-03-31 06:22:00,
2013-03-30 23:32:00,51.8,40.0,30.07,North,354,4.0,5.0,64,0.00,,SKC,0.00,VWS V12.07,2013-03-31 06:32:00,
2013-03-30 23:42:00,51.7,39.9,30.07,North,0,5.0,12.0,64,0.00,,SKC,0.00,VWS V12.07,2013-03-31 06:42:00,
2013-03-30 23:52:00,51.6,39.8,30.07,North,7,5.0,12.0,64,0.00,,SKC,0.00,VWS V12.07,2013-03-31 06:52:00,